Location: Newcastle Observatory
(43.9158°N, 78.5831°W)
Time: 23:07:50
(UTC-05:00)

Amateur Radio Satellites - All Passes

Search period start: 27 November 2014 22:37
Search period end: 28 November 2014 22:37
Location: Newcastle Observatory, 43.9158°N, 78.5831°W

Satellite Date Start Highest point End Downlink Frequencies (MHz)
Time Altitude Azimuth
UNISAT 6 27 Nov 22:38:33 22:42:51 46° 99° (E) 22:47:13 437.425
HUMSAT D 27 Nov 22:39:12 22:42:56 32° 263° (W) 22:46:40 437.325/437.525
UWE-3 27 Nov 22:41:35 22:44:26 18° 268° (W) 22:47:16 435.000/436.395/437.385
DX 1 27 Nov 22:44:11 22:44:52 10° 271° (W) 22:45:33 434.975-435.025
CUBEBUG 2 27 Nov 22:46:17 22:48:30 14° 269° (W) 22:50:44 437.445
DANDE 27 Nov 22:58:51 23:02:57 30° 76° (ENE) 23:08:12 436.750
POLYITAN 1 27 Nov 23:02:38 23:06:49 56° 101° (E) 23:10:58 437.675
QB50P2 27 Nov 23:03:50 23:08:01 58° 101° (E) 23:12:11 145.880/145.840
AUBIESAT-1 27 Nov 23:05:09 23:07:35 15° 54° (NE) 23:10:06 437.475
ANTELSAT 27 Nov 23:07:27 23:11:56 88° 284° (WNW) 23:16:31 437.575/2403.000
DUCHIFAT 1 27 Nov 23:08:31 23:12:44 65° 101° (ESE) 23:16:54 145.980
M-CUBED/EXP-1 PRIME 27 Nov 23:11:14 23:14:09 18° 56° (NE) 23:17:12 437.505
MaSat-1 27 Nov 23:14:01 23:15:04 12° 54° (NE) 23:16:07 437.345
TISAT 1 27 Nov 23:14:57 23:19:08 57° 73° (ENE) 23:23:20 437.305
VELOX 1 27 Nov 23:21:10 23:23:25 14° 270° (W) 23:25:41 145.980
ITUPSAT 1 27 Nov 23:23:22 23:25:44 14° 59° (ENE) 23:28:05 437.325
ESTCUBE 1 27 Nov 23:24:52 23:28:53 30° 264° (W) 23:32:55 437.505/2401.250
NANOSAT C BR1 27 Nov 23:28:18 23:32:31 76° 285° (WNW) 23:36:44 145.865
ISS 27 Nov 23:29:27 23:32:44 85° 328° (NNW) 23:36:02 145.825
SPROUT 27 Nov 23:31:00 23:35:18 74° 75° (ENE) 23:39:37 437.525
SWISSCUBE 27 Nov 23:32:30 23:35:42 18° 62° (ENE) 23:38:55 437.505
QB50P1 27 Nov 23:38:33 23:42:43 58° 287° (WNW) 23:46:51 145.935-145.965
BUGSAT 1 27 Nov 23:38:35 23:42:40 70° 286° (WNW) 23:46:40 437.445
CUBEBUG 1 27 Nov 23:53:16 23:56:06 17° 268° (W) 23:58:56 437.445
TIGRISAT 28 Nov 00:00:54 00:04:37 27° 293° (WNW) 00:08:24 435.000
BEESAT 28 Nov 00:01:56 00:06:06 30° 67° (ENE) 00:10:18 436.000
POPSAT HIP 1 28 Nov 00:03:59 00:07:44 32° 291° (WNW) 00:11:28 437.405
CUSAT 1 28 Nov 00:06:43 00:11:27 59° 262° (W) 00:17:46 437.405
UNISAT 6 28 Nov 00:16:09 00:19:21 20° 295° (WNW) 00:22:35 437.425
Oscar 19 28 Nov 00:35:08 00:38:02 15° 90° (E) 00:40:55 437.125/150
AUBIESAT-1 28 Nov 00:37:47 00:41:55 71° 253° (WSW) 00:46:28 437.475
RS-15 28 Nov 00:38:53 00:50:09 81° 54° (NE) 01:01:54 29.354- 29.394
POLYITAN 1 28 Nov 00:39:57 00:42:19 15° 298° (WNW) 00:44:42 437.675
QB50P2 28 Nov 00:41:11 00:43:29 15° 298° (WNW) 00:45:47 145.880/145.840
DANDE 28 Nov 00:42:09 00:46:24 33° 264° (W) 00:51:53 436.750
M-CUBED/EXP-1 PRIME 28 Nov 00:44:40 00:48:43 54° 255° (WSW) 00:53:10 437.505
DUCHIFAT 1 28 Nov 00:46:06 00:48:05 13° 299° (WNW) 00:50:04 145.980
ANTELSAT 28 Nov 00:47:07 00:48:04 11° 301° (WNW) 00:49:01 437.575/2403.000
MaSat-1 28 Nov 00:47:50 00:49:29 17° 249° (WSW) 00:51:10 437.345
STARS 28 Nov 00:49:07 00:51:13 13° 60° (ENE) 00:53:18 437.465
TISAT 1 28 Nov 00:53:12 00:55:20 14° 270° (W) 00:57:29 437.305
ITUPSAT 1 28 Nov 00:58:08 01:02:58 81° 256° (WSW) 01:07:49 437.325
ISS 28 Nov 01:06:57 01:09:44 25° 347° (NNW) 01:12:31 145.825
SWISSCUBE 28 Nov 01:08:23 01:13:07 59° 259° (W) 01:17:53 437.505
SPROUT 28 Nov 01:11:02 01:11:54 11° 272° (W) 01:12:47 437.525
YUBILEINY 28 Nov 01:24:15 01:31:43 33° 83° (E) 01:39:10 435.215
KKS-1 28 Nov 01:31:35 01:35:52 49° 71° (ENE) 01:40:10 437.445
ITAMSAT 1 28 Nov 01:32:16 01:35:59 20° 92° (E) 01:39:40 435.822/435.867
BEESAT 28 Nov 01:39:37 01:43:53 32° 264° (W) 01:48:11 436.000
Oscar 19 28 Nov 02:12:44 02:17:54 72° 287° (WNW) 02:23:03 437.125/150
Gurwin Techsat 1B 28 Nov 02:16:11 02:20:49 30° 95° (E) 02:25:26 435.225
STARS 28 Nov 02:22:45 02:27:08 70° 258° (WSW) 02:31:33 437.465
HORYU 2 28 Nov 02:40:22 02:43:43 20° 93° (E) 02:47:03 437.375
ISS 28 Nov 02:44:27 02:47:07 22° 8° (N) 02:49:47 145.825
RS-15 28 Nov 02:52:18 03:01:24 30° 256° (WSW) 03:10:51 29.354- 29.394
MOZHAYETS 4 28 Nov 02:54:22 02:56:09 12° 59° (ENE) 02:57:57
BEESAT 3 28 Nov 02:57:53 03:00:40 17° 38° (NE) 03:03:25 437.485
PCSat 28 Nov 03:08:51 03:13:26 27° 45° (NE) 03:18:00 145.827
KKS-1 28 Nov 03:09:55 03:12:48 17° 268° (W) 03:15:41 437.445
ITAMSAT 1 28 Nov 03:10:45 03:15:49 55° 289° (WNW) 03:20:50 435.822/435.867
BEESAT 2 28 Nov 03:14:54 03:18:07 21° 41° (NE) 03:21:18 435.950
YUBILEINY 28 Nov 03:19:23 03:28:01 59° 284° (WNW) 03:36:41 435.215
SO-50 28 Nov 03:30:39 03:35:10 81° 123° (ESE) 03:39:51 436.795
Oscar 19 28 Nov 03:55:13 03:56:19 11° 305° (NW) 03:57:24 437.125/150
Gurwin Techsat 1B 28 Nov 03:55:58 04:00:50 38° 293° (WNW) 04:05:41 435.225
AIST 2 28 Nov 03:58:59 04:02:41 27° 44° (NE) 04:06:20 435.215
AO-7 28 Nov 04:12:46 04:20:54 52° 102° (ESE) 04:28:59 29.400- 29.500
HORYU 2 28 Nov 04:16:20 04:20:34 42° 290° (WNW) 04:24:48 437.375
ISS 28 Nov 04:20:59 04:24:15 57° 27° (NNE) 04:27:30 145.825
MOZHAYETS 4 28 Nov 04:28:05 04:32:42 84° 257° (WSW) 04:37:21
STRAND 1 28 Nov 04:29:26 04:30:44 11° 55° (NE) 04:32:02 437.568
JAS-2 28 Nov 04:33:57 04:39:45 28° 90° (E) 04:44:58 435.910
BEESAT 3 28 Nov 04:35:11 04:39:24 75° 238° (WSW) 04:43:32 437.485
O/OREOS (USA 219) 28 Nov 04:37:32 04:40:21 17° 100° (E) 04:43:09 437.305
CUBESAT XI-V 28 Nov 04:41:57 04:43:53 12° 59° (ENE) 04:45:50 437.345
PRISM 28 Nov 04:51:48 04:55:37 34° 69° (ENE) 04:59:28 437.425
PCSat 28 Nov 04:51:53 04:57:11 55° 245° (WSW) 05:02:27 145.827
BEESAT 2 28 Nov 04:52:36 04:56:44 55° 240° (WSW) 05:00:48 435.950
CUTE-I 28 Nov 05:10:55 05:12:36 11° 87° (E) 05:14:16 437.470
SO-50 28 Nov 05:13:05 05:16:19 19° 324° (NW) 05:19:38 436.795
AIST 1 28 Nov 05:17:43 05:19:40 13° 66° (ENE) 05:21:36
YUBILEINY 28 Nov 05:23:41 05:27:05 13° 308° (NW) 05:30:30 435.215
AIST 2 28 Nov 05:37:24 05:41:26 39° 243° (WSW) 05:45:24 435.215
ISS 28 Nov 05:58:06 06:00:39 21° 225° (SW) 06:03:12 145.825
STRAND 1 28 Nov 06:03:53 06:09:01 74° 73° (ENE) 06:14:09 437.568
AO-7 28 Nov 06:05:53 06:13:29 41° 301° (WNW) 06:21:05 29.400- 29.500
Cubesat XI-IV 28 Nov 06:07:31 06:12:31 40° 98° (E) 06:17:28 437.490
O/OREOS (USA 219) 28 Nov 06:14:56 06:19:19 51° 297° (WNW) 06:23:42 437.305
CUBESAT XI-V 28 Nov 06:15:54 06:20:38 85° 257° (WSW) 06:25:24 437.345
JAS-2 28 Nov 06:18:22 06:25:15 55° 292° (WNW) 06:31:18 435.910
PRISM 28 Nov 06:27:57 06:31:15 22° 266° (W) 06:34:35 437.425
CUTE-I 28 Nov 06:48:03 06:53:25 88° 105° (ESE) 06:58:43 437.470
AIST 1 28 Nov 06:53:29 06:57:50 64° 265° (W) 07:02:06
GONETS M04 28 Nov 07:14:24 07:22:09 37° 84° (E) 07:29:57
STRAND 1 28 Nov 07:45:59 07:48:44 14° 271° (W) 07:51:30 437.568
Cubesat XI-IV 28 Nov 07:47:55 07:52:27 29° 295° (WNW) 07:56:58 437.490
HO-68 28 Nov 07:53:58 07:58:45 19° 90° (E) 08:03:31 435.675
AO-7 28 Nov 08:02:46 08:03:59 10° 324° (NW) 08:05:11 29.400- 29.500
JAS-2 28 Nov 08:06:25 08:08:33 12° 313° (NW) 08:10:39 435.910
SEEDS 28 Nov 08:09:05 08:10:48 12° 89° (E) 08:12:31 437.485
AAUSAT CUBESAT 2 28 Nov 08:20:58 08:22:41 12° 89° (E) 08:24:23 437.432
CUTE-I 28 Nov 08:30:00 08:32:44 14° 303° (WNW) 08:35:27 437.470
ANTELSAT 28 Nov 08:35:33 08:36:26 11° 59° (ENE) 08:37:18 437.575/2403.000
COMPASS 1 28 Nov 08:36:45 08:39:58 21° 93° (E) 08:43:11 437.405
GOMX 1 28 Nov 08:37:57 08:41:02 20° 94° (E) 08:44:11 467.674
CANX-2 28 Nov 08:38:53 08:42:45 32° 96° (E) 08:46:37 2200.000
NANOSAT C BR1 28 Nov 08:50:37 08:51:29 11° 60° (ENE) 08:52:21 145.865
DX 1 28 Nov 08:53:06 08:54:43 12° 90° (E) 08:56:20 434.975-435.025
BUGSAT 1 28 Nov 08:58:25 08:59:21 11° 60° (ENE) 09:00:16 437.445
QB50P1 28 Nov 08:59:35 09:01:38 13° 61° (ENE) 09:03:41 145.935-145.965
GONETS M04 28 Nov 09:10:05 09:18:38 53° 285° (WNW) 09:27:17
CUTE 1.7 + AOD 2 28 Nov 09:12:55 09:17:13 70° 102° (ESE) 09:21:30 437.475
BRITE-PL 28 Nov 09:18:21 09:22:31 76° 102° (ESE) 09:26:44 437.365/2234.400
DOVE 4 28 Nov 09:21:42 09:25:43 43° 99° (E) 09:29:51 437.250
ZACube-1 28 Nov 09:23:14 09:25:19 13° 90° (E) 09:27:24 437.345
POPSAT HIP 1 28 Nov 09:23:14 09:26:34 23° 66° (ENE) 09:29:54 437.405
TIGRISAT 28 Nov 09:24:43 09:28:30 32° 69° (ENE) 09:32:18 435.000
VELOX 1 28 Nov 09:34:36 09:35:23 10° 88° (E) 09:36:10 145.980
CINEMA 3 28 Nov 09:39:13 09:43:15 41° 99° (E) 09:47:24 145.822/145.860
UNISAT 6 28 Nov 09:39:26 09:43:31 47° 72° (ENE) 09:47:38 437.425
HO-68 28 Nov 09:40:04 09:47:17 84° 288° (WNW) 09:54:26 435.675
SEEDS 28 Nov 09:42:49 09:47:04 64° 286° (WNW) 09:51:18 437.485
DELFI C3 28 Nov 09:47:11 09:51:11 45° 99° (E) 09:55:09 145.870
UKube-1 28 Nov 09:49:01 09:53:12 46° 100° (E) 09:57:22 .
AAUSAT CUBESAT 2 28 Nov 09:54:35 09:58:47 63° 286° (WNW) 10:02:58 437.432
50 SAT 28 Nov 09:55:13 09:57:24 14° 91° (E) 09:59:35 437.505
FUNcube-1 28 Nov 09:56:13 09:59:58 29° 96° (E) 10:03:46 145.935
POLYITAN 1 28 Nov 09:57:25 10:01:33 52° 72° (ENE) 10:05:41 437.675
Oscar 11 28 Nov 09:58:17 10:02:39 71° 102° (ESE) 10:06:59 145.826/435.025
QB50P2 28 Nov 09:58:23 10:02:31 53° 73° (ENE) 10:06:40 145.880/145.840
AISAT 28 Nov 10:00:13 10:03:35 21° 94° (E) 10:06:55 437.250
DUCHIFAT 1 28 Nov 10:02:42 10:06:52 58° 73° (ENE) 10:11:03 145.980
ANTELSAT 28 Nov 10:08:19 10:12:35 84° 257° (WSW) 10:16:53 437.575/2403.000
COMPASS 1 28 Nov 10:11:54 10:15:49 37° 290° (WNW) 10:19:43 437.405
CANX-2 28 Nov 10:15:04 10:18:34 25° 293° (WNW) 10:22:04 2200.000
GOMX 1 28 Nov 10:15:29 10:19:19 36° 289° (WNW) 10:23:14 467.674
SO-50 28 Nov 10:21:04 10:24:39 20° 38° (NE) 10:28:16 436.795
HUMSAT D 28 Nov 10:22:12 10:26:02 34° 97° (E) 10:29:52 437.325/437.525
NANOSAT C BR1 28 Nov 10:22:28 10:26:43 84° 257° (WSW) 10:31:00 145.865
DX 1 28 Nov 10:27:06 10:31:26 68° 286° (WNW) 10:35:43 434.975-435.025
UWE-3 28 Nov 10:28:24 10:32:40 79° 103° (ESE) 10:37:02 435.000/436.395/437.385
BUGSAT 1 28 Nov 10:29:57 10:34:13 84° 257° (WSW) 10:38:27 437.445
QB50P1 28 Nov 10:32:47 10:37:01 65° 258° (WSW) 10:41:15 145.935-145.965
CUBEBUG 2 28 Nov 10:33:30 10:37:46 80° 284° (WNW) 10:42:09 437.445
CUTE 1.7 + AOD 2 28 Nov 10:50:41 10:52:36 13° 299° (WNW) 10:54:30 437.475
ZACube-1 28 Nov 10:57:52 11:02:03 58° 286° (WNW) 11:06:18 437.345
POPSAT HIP 1 28 Nov 10:58:25 11:02:18 34° 263° (W) 11:06:12 437.405
BRITE-PL 28 Nov 10:59:35 11:00:29 11° 300° (WNW) 11:01:22 437.365/2234.400
DOVE 4 28 Nov 11:00:24 11:03:14 18° 295° (WNW) 11:06:07 437.250
TIGRISAT 28 Nov 11:01:55 11:05:19 23° 266° (W) 11:08:44 435.000
VELOX 1 28 Nov 11:08:05 11:12:32 78° 285° (WNW) 11:16:55 145.980
GONETS M04 28 Nov 11:15:36 11:17:59 11° 310° (NW) 11:20:23
ESTCUBE 1 28 Nov 11:15:51 11:20:17 50° 100° (E) 11:24:40 437.505/2401.250
CINEMA 3 28 Nov 11:17:13 11:20:14 19° 294° (WNW) 11:23:18 145.822/145.860
UNISAT 6 28 Nov 11:17:57 11:20:36 16° 269° (W) 11:23:16 437.425
SPROUT 28 Nov 11:18:47 11:20:20 12° 89° (E) 11:21:52 437.525
DELFI C3 28 Nov 11:23:26 11:26:09 17° 296° (WNW) 11:28:51 145.870
UKube-1 28 Nov 11:26:02 11:29:03 19° 297° (WNW) 11:32:02 .
50 SAT 28 Nov 11:29:03 11:33:00 50° 287° (WNW) 11:36:58 437.505
HO-68 28 Nov 11:29:19 11:33:58 19° 308° (NW) 11:38:38 435.675
YUBILEINY 28 Nov 11:32:34 11:37:56 17° 57° (ENE) 11:43:14 435.215
FUNcube-1 28 Nov 11:32:42 11:36:15 26° 292° (WNW) 11:39:50 145.935
POLYITAN 1 28 Nov 11:35:24 11:37:49 15° 269° (W) 11:40:13 437.675
AISAT 28 Nov 11:36:14 11:40:22 39° 290° (WNW) 11:44:27 437.250
Oscar 11 28 Nov 11:36:18 11:38:15 13° 299° (WNW) 11:40:11 145.826/435.025
QB50P2 28 Nov 11:36:26 11:38:46 14° 269° (W) 11:41:07 145.880/145.840
CUBEBUG 1 28 Nov 11:39:10 11:43:34 85° 104° (ESE) 11:47:54 437.445
DUCHIFAT 1 28 Nov 11:41:05 11:43:07 13° 270° (W) 11:45:09 145.980
Oscar 19 28 Nov 11:53:00 11:57:09 26° 64° (ENE) 12:01:20 437.125/150
HUMSAT D 28 Nov 11:58:25 12:01:40 22° 294° (WNW) 12:04:56 437.325/437.525
SO-50 28 Nov 12:00:54 12:05:47 79° 237° (WSW) 12:10:41 436.795
UWE-3 28 Nov 12:07:20 12:08:38 11° 299° (WNW) 12:09:58 435.000/436.395/437.385
DANDE 28 Nov 12:18:29 12:20:20 17° 93° (E) 12:22:10 436.750
M-CUBED/EXP-1 PRIME 28 Nov 12:28:11 12:30:26 13° 93° (E) 12:32:40 437.505
TISAT 1 28 Nov 12:34:29 12:38:44 89° 104° (ESE) 12:42:56 437.305
ITAMSAT 1 28 Nov 12:51:18 12:56:00 35° 67° (ENE) 13:00:42 435.822/435.867
SPROUT 28 Nov 12:52:37 12:56:53 66° 286° (WNW) 13:01:07 437.525
ESTCUBE 1 28 Nov 12:53:40 12:56:47 19° 297° (WNW) 12:59:53 437.505/2401.250
ITUPSAT 1 28 Nov 12:58:14 13:02:06 24° 94° (E) 13:05:57 437.325
VERMONT LUNAR 28 Nov 13:00:08 13:02:14 15° 151° (SSE) 13:04:21 437.305
PHONESAT 2.4 28 Nov 13:00:55 13:02:11 11° 148° (SSE) 13:03:27 2401.200-2431.200
SWISSCUBE 28 Nov 13:07:48 13:12:07 32° 96° (E) 13:16:23 437.505
CUBEBUG 1 28 Nov 13:18:09 13:19:15 11° 301° (WNW) 13:20:22 437.445
CUSAT 1 28 Nov 13:23:27 13:25:42 26° 286° (WNW) 13:28:01 437.405
AO-7 28 Nov 13:24:17 13:29:46 20° 47° (NE) 13:35:16 29.400- 29.500
YUBILEINY 28 Nov 13:27:38 13:36:24 77° 80° (E) 13:45:04 435.215
Oscar 19 28 Nov 13:31:26 13:36:16 43° 262° (W) 13:41:09 437.125/150
BEESAT 28 Nov 13:38:00 13:42:45 59° 101° (E) 13:47:28 436.000
Gurwin Techsat 1B 28 Nov 13:38:30 13:43:39 54° 71° (ENE) 13:48:49 435.225
HORYU 2 28 Nov 13:40:36 13:44:05 23° 65° (ENE) 13:47:34 437.375
SO-50 28 Nov 13:44:53 13:45:32 10° 254° (WSW) 13:46:11 436.795
AUBIESAT-1 28 Nov 13:53:53 13:58:50 81° 108° (ESE) 14:03:37 437.475
M-CUBED/EXP-1 PRIME 28 Nov 14:01:04 14:06:02 81° 290° (WNW) 14:10:51 437.505
DANDE 28 Nov 14:03:46 14:03:51 10° 291° (WNW) 14:03:55 436.750
STARS 28 Nov 14:12:24 14:15:35 19° 93° (E) 14:18:45 437.465
MaSat-1 28 Nov 14:16:06 14:18:40 29° 113° (ESE) 14:21:04 437.345
ITAMSAT 1 28 Nov 14:30:52 14:35:29 31° 264° (W) 14:40:07 435.822/435.867
ITUPSAT 1 28 Nov 14:35:38 14:40:08 40° 291° (WNW) 14:44:35 437.325
VERMONT LUNAR 28 Nov 14:36:46 14:40:09 38° 167° (SSE) 14:43:32 437.305
PHONESAT 2.4 28 Nov 14:36:56 14:40:18 33° 164° (SSE) 14:43:41 2401.200-2431.200
O/OREOS (USA 219) 28 Nov 14:44:15 14:48:30 41° 61° (ENE) 14:52:44 437.305
SWISSCUBE 28 Nov 14:45:45 14:49:54 30° 294° (WNW) 14:54:02 437.505
JAS-2 28 Nov 14:47:32 14:52:45 20° 54° (NE) 14:57:58 435.910
KKS-1 28 Nov 14:57:54 15:02:22 86° 103° (ESE) 15:06:48 437.445
RS-15 28 Nov 15:04:36 15:14:40 44° 110° (ESE) 15:24:42 29.354- 29.394
AO-7 28 Nov 15:13:00 15:21:15 76° 68° (ENE) 15:29:35 29.400- 29.500
HORYU 2 28 Nov 15:16:27 15:20:33 37° 262° (W) 15:24:42 437.375
BEESAT 28 Nov 15:16:59 15:20:08 18° 299° (WNW) 15:23:17 436.000
Gurwin Techsat 1B 28 Nov 15:19:59 15:23:56 21° 268° (W) 15:27:54 435.225
YUBILEINY 28 Nov 15:25:49 15:32:12 24° 281° (W) 15:38:35 435.215
AUBIESAT-1 28 Nov 15:30:17 15:33:10 16° 306° (NW) 15:36:01 437.475
M-CUBED/EXP-1 PRIME 28 Nov 15:38:04 15:40:16 13° 308° (NW) 15:42:27 437.505
STARS 28 Nov 15:48:06 15:52:15 42° 290° (WNW) 15:56:23 437.465
MaSat-1 28 Nov 15:52:07 15:53:10 12° 307° (NW) 15:54:12 437.345
Cubesat XI-IV 28 Nov 15:55:11 15:57:03 12° 55° (NE) 15:58:55 437.490
VERMONT LUNAR 28 Nov 16:14:50 16:18:20 48° 184° (S) 16:21:51 437.305
PHONESAT 2.4 28 Nov 16:15:11 16:18:47 50° 181° (S) 16:22:24 2401.200-2431.200
MOZHAYETS 4 28 Nov 16:22:47 16:26:22 22° 93° (E) 16:29:55
O/OREOS (USA 219) 28 Nov 16:24:16 16:27:37 21° 258° (WSW) 16:30:57 437.305
JAS-2 28 Nov 16:28:53 16:36:37 80° 73° (ENE) 16:44:29 435.910
CUTE-I 28 Nov 16:32:56 16:37:09 24° 63° (ENE) 16:41:22 437.470
KKS-1 28 Nov 16:36:59 16:38:20 11° 301° (WNW) 16:39:41 437.445
AO-7 28 Nov 17:08:22 17:14:48 25° 268° (W) 17:21:18 29.400- 29.500
RS-15 28 Nov 17:15:55 17:26:40 60° 314° (NW) 17:37:33 29.354- 29.394
GONETS M04 28 Nov 17:22:51 17:28:53 20° 59° (ENE) 17:34:52
Cubesat XI-IV 28 Nov 17:30:53 17:36:14 75° 73° (ENE) 17:41:36 437.490
VERMONT LUNAR 28 Nov 17:53:23 17:56:26 26° 201° (SSW) 17:59:29 437.305
PHONESAT 2.4 28 Nov 17:53:55 17:57:16 32° 197° (SSW) 18:00:36 2401.200-2431.200
PCSat 28 Nov 17:54:12 17:57:14 15° 104° (ESE) 18:00:16 145.827
MOZHAYETS 4 28 Nov 17:59:22 18:03:45 42° 290° (WNW) 18:08:07
PRISM 28 Nov 18:08:51 18:12:58 47° 100° (E) 18:17:01 437.425
CUTE-I 28 Nov 18:11:43 18:16:54 50° 260° (W) 18:22:07 437.470
CUBESAT XI-V 28 Nov 18:12:17 18:15:54 22° 93° (E) 18:19:28 437.345
STRAND 1 28 Nov 18:13:53 18:17:49 22° 93° (E) 18:21:42 437.568
JAS-2 28 Nov 18:16:27 18:22:20 23° 272° (W) 18:28:19 435.910
HO-68 28 Nov 18:25:13 18:29:55 19° 52° (NE) 18:34:37 435.675
BEESAT 3 28 Nov 18:33:13 18:35:34 15° 110° (ESE) 18:37:56 437.485
BEESAT 2 28 Nov 18:50:17 18:53:21 20° 112° (ESE) 18:56:27 435.950
BRITE-PL 28 Nov 18:55:20 18:57:17 13° 62° (ENE) 18:59:11 437.365/2234.400
SEEDS 28 Nov 19:04:07 19:05:27 11° 60° (ENE) 19:06:47 437.485
Cubesat XI-IV 28 Nov 19:13:54 19:16:53 15° 271° (W) 19:19:53 437.490
AAUSAT CUBESAT 2 28 Nov 19:15:04 19:16:16 11° 60° (ENE) 19:17:27 437.432
GONETS M04 28 Nov 19:18:17 19:27:11 85° 82° (E) 19:35:58
AIST 1 28 Nov 19:24:10 19:28:33 70° 96° (E) 19:32:58
COMPASS 1 28 Nov 19:30:35 19:33:26 18° 65° (ENE) 19:36:19 437.405
RS-15 28 Nov 19:33:02 19:41:57 27° 345° (NNW) 19:51:03 29.354- 29.394
CANX-2 28 Nov 19:33:45 19:37:21 28° 68° (ENE) 19:40:59 2200.000
PCSat 28 Nov 19:34:31 19:39:56 80° 302° (WNW) 19:45:23 145.827
PHONESAT 2.4 28 Nov 19:34:41 19:35:21 10° 213° (SSW) 19:36:02 2401.200-2431.200
AIST 2 28 Nov 19:37:11 19:40:55 31° 115° (ESE) 19:44:42 435.215
PRISM 28 Nov 19:45:21 19:48:10 18° 297° (WNW) 19:50:58 437.425
GOMX 1 28 Nov 19:47:34 19:51:29 28° 69° (ENE) 19:55:13 467.674
CUBESAT XI-V 28 Nov 19:49:07 19:53:30 41° 290° (WNW) 19:57:49 437.345
DX 1 28 Nov 19:50:18 19:52:37 14° 61° (ENE) 19:54:57 434.975-435.025
STRAND 1 28 Nov 19:52:21 19:57:15 48° 290° (WNW) 20:02:07 437.568
CUBEBUG 2 28 Nov 20:00:44 20:01:38 11° 60° (ENE) 20:02:32 437.445
CUTE 1.7 + AOD 2 28 Nov 20:07:21 20:11:30 59° 74° (ENE) 20:15:41 437.475
BEESAT 3 28 Nov 20:09:16 20:13:19 58° 307° (NW) 20:17:27 437.485
HO-68 28 Nov 20:09:25 20:16:36 84° 72° (ENE) 20:23:51 435.675
ZACube-1 28 Nov 20:21:46 20:23:47 13° 62° (ENE) 20:25:48 437.345
BEESAT 2 28 Nov 20:27:23 20:31:21 43° 310° (NW) 20:35:23 435.950
DOVE 4 28 Nov 20:28:59 20:33:23 54° 73° (ENE) 20:37:34 437.250
BRITE-PL 28 Nov 20:30:24 20:35:18 80° 257° (WSW) 20:39:51 437.365/2234.400
VELOX 1 28 Nov 20:33:35 20:35:42 13° 60° (ENE) 20:37:50 145.980
SEEDS 28 Nov 20:36:29 20:40:40 76° 258° (WSW) 20:44:54 437.485
DELFI C3 28 Nov 20:37:32 20:41:15 35° 70° (ENE) 20:44:59 145.870
CINEMA 3 28 Nov 20:42:49 20:46:56 45° 72° (ENE) 20:50:57 145.822/145.860
UKube-1 28 Nov 20:45:30 20:49:41 48° 71° (ENE) 20:53:53 .
50 SAT 28 Nov 20:46:47 20:48:21 12° 62° (ENE) 20:49:55 437.505
AAUSAT CUBESAT 2 28 Nov 20:47:10 20:51:20 77° 258° (WSW) 20:55:32 437.432
FUNcube-1 28 Nov 20:54:09 20:57:43 28° 68° (ENE) 21:01:16 145.935
Oscar 11 28 Nov 20:54:24 20:58:39 65° 74° (ENE) 21:02:57 145.826/435.025
AISAT 28 Nov 21:00:02 21:03:37 24° 66° (ENE) 21:07:12 437.250
COMPASS 1 28 Nov 21:04:54 21:08:52 43° 262° (W) 21:12:53 437.405
AIST 1 28 Nov 21:05:03 21:06:45 12° 294° (WNW) 21:08:28
CUBEBUG 1 28 Nov 21:05:16 21:05:29 10° 58° (ENE) 21:05:42 437.445
CANX-2 28 Nov 21:09:41 21:13:16 27° 265° (W) 21:16:53 2200.000
AIST 2 28 Nov 21:15:41 21:19:31 32° 314° (NW) 21:23:24 435.215
HUMSAT D 28 Nov 21:16:18 21:19:53 29° 69° (ENE) 21:23:29 437.325/437.525
GONETS M04 28 Nov 21:16:47 21:22:50 21° 283° (WNW) 21:28:52
PCSat 28 Nov 21:20:44 21:24:14 17° 323° (NW) 21:27:45 145.827
DX 1 28 Nov 21:24:01 21:28:21 65° 258° (WSW) 21:32:44 434.975-435.025
GOMX 1 28 Nov 21:25:28 21:29:34 30° 263° (W) 21:33:28 467.674
UWE-3 28 Nov 21:27:18 21:31:30 76° 75° (ENE) 21:35:40 435.000/436.395/437.385
CUBEBUG 2 28 Nov 21:33:31 21:37:45 79° 257° (WSW) 21:41:56 437.445
CUTE 1.7 + AOD 2 28 Nov 21:45:54 21:47:49 13° 270° (W) 21:49:45 437.475
RS-15 28 Nov 21:49:45 21:59:02 29° 20° (NNE) 22:08:35 29.354- 29.394
BEESAT 3 28 Nov 21:51:12 21:52:27 11° 328° (NNW) 21:53:42 437.485
ZACube-1 28 Nov 21:55:33 21:59:42 61° 259° (W) 22:03:50 437.345
ANTELSAT 28 Nov 21:59:51 22:03:02 19° 93° (E) 22:06:15 437.575/2403.000
HO-68 28 Nov 22:00:20 22:05:08 19° 270° (W) 22:09:57 435.675
VELOX 1 28 Nov 22:07:15 22:11:43 73° 257° (WSW) 22:16:12 145.980
NANOSAT C BR1 28 Nov 22:08:07 22:10:25 14° 91° (E) 22:12:42 145.865
DOVE 4 28 Nov 22:08:56 22:11:27 15° 268° (W) 22:13:55 437.250
BUGSAT 1 28 Nov 22:13:19 22:15:04 12° 90° (E) 22:16:48 437.445
DELFI C3 28 Nov 22:13:38 22:16:39 20° 267° (W) 22:19:43 145.870
SPROUT 28 Nov 22:15:05 22:16:53 13° 61° (ENE) 22:18:42 437.525
CUSAT 1 28 Nov 22:15:30 22:19:03 19° 72° (ENE) 22:23:17 437.405
ESTCUBE 1 28 Nov 22:16:55 22:21:22 55° 72° (ENE) 22:25:50 437.505/2401.250
QB50P1 28 Nov 22:17:55 22:20:53 18° 93° (E) 22:23:49 145.935-145.965
50 SAT 28 Nov 22:19:09 22:23:08 65° 259° (WSW) 22:27:09 437.505
CINEMA 3 28 Nov 22:21:38 22:24:23 16° 268° (W) 22:27:05 145.822/145.860
UKube-1 28 Nov 22:23:17 22:26:06 17° 268° (W) 22:28:56 .
FUNcube-1 28 Nov 22:30:33 22:34:03 26° 265° (W) 22:37:34 145.935
Oscar 11 28 Nov 22:33:37 22:35:17 12° 271° (W) 22:36:58 145.826/435.025
